Location: Beaurecueil
(43.5122°N, 5.5450°E)
Time: 14:25:01
(UTC+00:00)

GP-B - Pass Details

Date: 18 September 2020
Orbit: 631 x 635 km, 89.8° (Epoch: 29 October)

Event Time Altitude Azimuth Distance (km) Brightness Sun altitude
Rises 18:19:00 0° 358° (N) 2,943 6.7 -7.5°
Reaches altitude 10° 18:21:15 10° 355° (N) 2,029 5.9 -7.9°
Maximum altitude 18:25:40 62° 275° (W) 715 3.7 -8.7°
Drops below altitude 10° 18:30:01 10° 195° (SSW) 2,010 5.7 -9.5°
Sets 18:32:14 0° 192° (SSW) 2,913 6.5 -9.9°
